Location: *
(47.2969°N, 10.2930°E)
Time: 04:07:41
(UTC+00:00)

Cosmos-2242 - Pass Details

Date: 09 April 2020
Orbit: 590 x 618 km, 82.5° (Epoch: 01 June)

Event Time Altitude Azimuth Distance (km) Brightness Sun altitude
Exits shadow 20:08:39 32° 68° (ENE) 1,058 4.0 -20.4°
Drops below altitude 10° 20:11:50 10° 26° (NNE) 1,976 5.8 -20.8°
Sets 20:14:12 0° 18° (NNE) 2,891 6.8 -21.1°
